Weather History for KOZR - December, 2013

Change the Weather History Date:

Monday, December 2, 2013

  Actual Average (KDHN) Record (KDHN)
Temperature  
Mean Temperature 58 °F 54 °F  
Max Temperature 69 °F 66 °F - ()
Min Temperature 47 °F 42 °F - ()
Degree Days  
Heating Degree Days 7 11  
Month to date heating degree days 22  
Since 1 July heating degree days 299  
Growing Degree Days 8 (Base 50)    
Moisture  
Dew Point 48 °F    
Average Humidity 73    
Maximum Humidity 94    
Minimum Humidity 41    
Precipitation  
Precipitation 0.00 in 0.19 in - ()
Month to date precipitation 0.39  
Year to date precipitation 49.97  
Sea Level Pressure  
Sea Level Pressure 29.90 in    
Wind  
Wind Speed 3 mph (SSW)    
Max Wind Speed 8 mph    
Max Gust Speed -    
Visibility 9 miles    
Events      
T = Trace of Precipitation, MM = Missing Value Source: NWS Daily Summary

Daily Weather History Graph

Daily Weather History Graph

Search for Another Location

Airport or City:

Trip Planner

Search our weather history database for the weather conditions in past years. The results will help you decide how hot, cold, wet, or windy it might be!

Date:

Astronomy

Dec. 02, 2013 Rise Set
Actual Time 6:24 AM CST 4:39 PM CST
Civil Twilight 5:58 AM CST 5:06 PM CST
Nautical Twilight 5:28 AM CST 5:36 PM CST
Astronomical Twilight 4:59 AM CST 6:05 PM CST
Moon 5:51 AM CST (12/2) 4:40 PM CST (12/2)
Length of Visible Light 11h 07m
Length of Day
10h 14m
Waning Crescent, 0% of the Moon is Illuminated
Dec 2
Waning Crescent
Dec 2
New
Dec 9
First Quarter
Dec 17
Full
Dec 25
Last Quarter

Hourly Weather History & Observations

Time (CST) Temp. Dew Point Humidity Pressure Visibility Wind Dir Wind Speed Gust Speed Precip Events Conditions
12:58 AM 50.0 °F 48.0 °F 93% 30.03 in 10.0 mi WNW 2.3 mph - N/A   Clear
1:58 AM 50.5 °F 48.7 °F 94% 30.01 in 10.0 mi Variable 1.2 mph - N/A   Clear
2:58 AM 50.0 °F 48.0 °F 93% 29.99 in 5.0 mi SSE 3.5 mph - N/A   Clear
3:58 AM 50.4 °F 48.2 °F 92% 29.94 in 10.0 mi East 3.5 mph - 0.00 in   Clear
4:33 AM 50.0 °F 48.2 °F 94% 29.96 in 2.5 mi West 6.9 mph - N/A   Mostly Cloudy
4:43 AM 50.0 °F 46.4 °F 87% 29.95 in 4.0 mi WNW 2.3 mph - N/A   Mostly Cloudy
4:58 AM 49.5 °F 46.9 °F 91% 29.96 in 10.0 mi WNW 2.3 mph - N/A   Mostly Cloudy
6:58 AM 47.3 °F 45.3 °F 93% 29.97 in 10.0 mi ENE 3.5 mph - N/A   Partly Cloudy
7:58 AM 51.3 °F 48.2 °F 89% 29.95 in 10.0 mi NE 4.6 mph - N/A   Clear
8:58 AM 57.2 °F 48.9 °F 74% 29.95 in 10.0 mi Variable 1.2 mph - N/A   Clear
9:58 AM 61.7 °F 47.8 °F 60% 29.94 in 10.0 mi Variable 2.3 mph - N/A   Clear
10:58 AM 64.8 °F 46.9 °F 52% 29.92 in 10.0 mi Variable 3.5 mph - N/A   Clear
11:58 AM 67.3 °F 46.2 °F 47% 29.88 in 10.0 mi Variable 3.5 mph - N/A   Clear
12:58 PM 69.4 °F 45.9 °F 43% 29.86 in 10.0 mi Variable 5.8 mph - N/A   Clear
1:58 PM 69.6 °F 44.8 °F 41% 29.84 in 10.0 mi WSW 4.6 mph - N/A   Clear
2:58 PM 69.4 °F 45.0 °F 41% 29.83 in 10.0 mi Variable 4.6 mph - N/A   Clear
3:58 PM 68.2 °F 46.9 °F 47% 29.83 in 9.0 mi SW 8.1 mph - N/A   Clear
4:43 PM 64.4 °F 46.4 °F 52% 29.82 in 1.8 mi SSW 3.5 mph - N/A   Haze
4:58 PM 61.0 °F 46.6 °F 59% 29.83 in 10.0 mi SW 4.6 mph - N/A   Clear
5:58 PM 58.3 °F 47.1 °F 66% 29.83 in 10.0 mi Calm Calm - N/A   Clear
6:58 PM 57.7 °F 48.9 °F 72% 29.86 in 10.0 mi South 5.8 mph - N/A   Clear
7:58 PM 57.6 °F 50.4 °F 77% 29.87 in 9.0 mi SSW 4.6 mph - N/A   Overcast
8:58 PM 56.5 °F 51.4 °F 83% 29.87 in 10.0 mi SSW 4.6 mph - N/A   Mostly Cloudy
9:58 PM 56.5 °F 52.3 °F 86% 29.87 in 10.0 mi South 5.8 mph - N/A   Mostly Cloudy
10:58 PM 56.3 °F 52.5 °F 87% 29.88 in 10.0 mi South 4.6 mph - N/A   Overcast
11:58 PM 55.8 °F 52.0 °F 87% 29.87 in 10.0 mi SSE 6.9 mph - N/A   Mostly Cloudy